• In Deutschland
  • Länderverzeichnis
  • Für 7 Tage
  • Wassertemperatur
  • Satellitenkarten
  • Wetterkarte
  • Widgets
  • user-avatar
    Anmelden

    Stündliche Wetter Saidpur

    Heute, 23 Juli, Sonntag

    Zeit Temperatur Niederschläge Wind Luftdruck Luftfeuchtigkeit
    00:00 +31°C° 0 mm 3 m/S 748 mmHg 82%
    01:00 +30°C° 1,2 mm 4 m/S 747 mmHg 83%
    02:00 +30°C° 1,2 mm 4 m/S 747 mmHg 84%
    03:00 +30°C° 1,2 mm 4 m/S 747 mmHg 86%
    04:00 +30°C° 0,5 mm 4 m/S 747 mmHg 87%
    05:00 +29°C° 0,5 mm 4 m/S 747 mmHg 87%
    06:00 +29°C° 0,5 mm 4 m/S 747 mmHg 88%
    07:00 +30°C° 0,2 mm 4 m/S 747 mmHg 84%
    08:00 +32°C° 0,2 mm 4 m/S 747 mmHg 81%
    09:00 +32°C° 0,2 mm 5 m/S 747 mmHg 77%
    10:00 +33°C° 0,1 mm 5 m/S 747 mmHg 74%
    11:00 +34°C° 0,1 mm 5 m/S 747 mmHg 71%
    12:00 +34°C° 0,1 mm 5 m/S 747 mmHg 67%
    13:00 +35°C° 0 mm 5 m/S 746 mmHg 65%
    14:00 +35°C° 0 mm 5 m/S 746 mmHg 63%
    15:00 +36°C° 0 mm 5 m/S 745 mmHg 61%
    16:00 +35°C° 1,1 mm 5 m/S 745 mmHg 63%
    17:00 +35°C° 1,1 mm 5 m/S 745 mmHg 66%
    18:00 +34°C° 1,1 mm 5 m/S 745 mmHg 68%
    19:00 +34°C° 1,4 mm 5 m/S 746 mmHg 71%
    20:00 +33°C° 1,4 mm 5 m/S 746 mmHg 75%
    21:00 +32°C° 1,4 mm 4 m/S 747 mmHg 78%
    22:00 +30°C° 0,1 mm 4 m/S 747 mmHg 81%
    23:00 +30°C° 0,1 mm 4 m/S 747 mmHg 83%

    Morgen, 24 Juli, Montag

    Zeit Temperatur Niederschläge Wind Luftdruck Luftfeuchtigkeit
    00:00 +30°C° 0,1 mm 4 m/S 747 mmHg 85%
    01:00 +29°C° 0,1 mm 4 m/S 746 mmHg 86%
    02:00 +29°C° 0,1 mm 3 m/S 746 mmHg 88%
    03:00 +29°C° 0,1 mm 3 m/S 745 mmHg 89%
    04:00 +28°C° 0,1 mm 3 m/S 745 mmHg 89%
    05:00 +28°C° 0,1 mm 3 m/S 745 mmHg 88%
    06:00 +28°C° 0,1 mm 3 m/S 745 mmHg 88%
    07:00 +29°C° 0,1 mm 4 m/S 745 mmHg 84%
    08:00 +30°C° 0,1 mm 4 m/S 746 mmHg 80%
    09:00 +32°C° 0,1 mm 5 m/S 746 mmHg 76%
    10:00 +32°C° 0,4 mm 5 m/S 746 mmHg 74%
    11:00 +33°C° 0,4 mm 6 m/S 746 mmHg 73%
    12:00 +33°C° 0,4 mm 7 m/S 746 mmHg 72%
    13:00 +32°C° 0,8 mm 7 m/S 746 mmHg 74%
    14:00 +32°C° 0,8 mm 8 m/S 745 mmHg 76%
    15:00 +31°C° 0,8 mm 9 m/S 745 mmHg 79%
    16:00 +29°C° 0,1 mm 8 m/S 745 mmHg 79%
    17:00 +29°C° 0,1 mm 8 m/S 745 mmHg 80%
    18:00 +29°C° 0,1 mm 8 m/S 745 mmHg 80%
    19:00 +28°C° 0,1 mm 8 m/S 746 mmHg 81%
    20:00 +28°C° 0,1 mm 7 m/S 746 mmHg 82%
    21:00 +28°C° 0,1 mm 7 m/S 746 mmHg 83%
    22:00 +28°C° 0,9 mm 6 m/S 746 mmHg 85%
    23:00 +28°C° 0,9 mm 6 m/S 746 mmHg 86%

    übermorgen, 25 Juli, Dienstag

    Zeit Temperatur Niederschläge Wind Luftdruck Luftfeuchtigkeit
    00:00 +28°C° 0,9 mm 6 m/S 745 mmHg 87%
    01:00 +28°C° 0,5 mm 5 m/S 745 mmHg 88%
    02:00 +28°C° 0,5 mm 5 m/S 744 mmHg 89%
    03:00 +28°C° 0,5 mm 5 m/S 744 mmHg 90%
    04:00 +28°C° 0,5 mm 5 m/S 744 mmHg 90%
    05:00 +28°C° 0,5 mm 5 m/S 744 mmHg 90%
    06:00 +28°C° 0,5 mm 6 m/S 744 mmHg 90%
    07:00 +28°C° 0,9 mm 6 m/S 745 mmHg 88%
    08:00 +29°C° 0,9 mm 6 m/S 745 mmHg 86%
    09:00 +29°C° 0,9 mm 7 m/S 746 mmHg 84%
    10:00 +29°C° 1 mm 7 m/S 746 mmHg 84%
    11:00 +28°C° 1 mm 6 m/S 746 mmHg 85%
    12:00 +28°C° 1 mm 6 m/S 746 mmHg 86%
    13:00 +29°C° 0,8 mm 6 m/S 745 mmHg 85%
    14:00 +29°C° 0,8 mm 6 m/S 745 mmHg 84%
    15:00 +30°C° 0,8 mm 6 m/S 745 mmHg 83%
    16:00 +29°C° 1,1 mm 6 m/S 745 mmHg 84%
    17:00 +29°C° 1,1 mm 6 m/S 745 mmHg 85%
    18:00 +29°C° 1,1 mm 6 m/S 745 mmHg 86%
    19:00 +29°C° 0,5 mm 6 m/S 746 mmHg 87%
    20:00 +28°C° 0,5 mm 6 m/S 747 mmHg 88%
    21:00 +28°C° 0,5 mm 6 m/S 747 mmHg 88%
    22:00 +28°C° 0,3 mm 5 m/S 747 mmHg 89%
    23:00 +28°C° 0,3 mm 5 m/S 748 mmHg 89%

    26 Juli, Mittwoch

    Zeit Temperatur Niederschläge Wind Luftdruck Luftfeuchtigkeit
    00:00 +28°C° 0,3 mm 5 m/S 748 mmHg 90%
    01:00 +28°C° 0,3 mm 5 m/S 747 mmHg 90%
    02:00 +28°C° 0,3 mm 5 m/S 747 mmHg 90%
    03:00 +28°C° 0,3 mm 5 m/S 747 mmHg 91%
    04:00 +27°C° 0,2 mm 5 m/S 747 mmHg 91%
    05:00 +27°C° 0,2 mm 5 m/S 747 mmHg 91%
    06:00 +27°C° 0,2 mm 5 m/S 747 mmHg 91%
    07:00 +28°C° 0,6 mm 5 m/S 748 mmHg 90%
    08:00 +28°C° 0,6 mm 6 m/S 748 mmHg 89%
    09:00 +28°C° 0,6 mm 6 m/S 749 mmHg 89%
    10:00 +28°C° 1,6 mm 5 m/S 749 mmHg 88%
    11:00 +28°C° 1,6 mm 5 m/S 749 mmHg 87%
    12:00 +29°C° 1,6 mm 4 m/S 749 mmHg 86%
    13:00 +29°C° 0,6 mm 4 m/S 748 mmHg 83%
    14:00 +30°C° 0,6 mm 3 m/S 748 mmHg 79%
    15:00 +31°C° 0,6 mm 2 m/S 747 mmHg 75%
    16:00 +31°C° 0,1 mm 2 m/S 747 mmHg 74%
    17:00 +32°C° 0,1 mm 1 m/S 747 mmHg 73%
    18:00 +32°C° 0,1 mm 1 m/S 746 mmHg 73%
    19:00 +31°C° 0 mm 1 m/S 747 mmHg 75%
    20:00 +31°C° 0 mm 1 m/S 748 mmHg 78%
    21:00 +30°C° 0 mm 1 m/S 748 mmHg 81%
    22:00 +30°C° 0,3 mm 1 m/S 748 mmHg 82%
    23:00 +29°C° 0,3 mm 1 m/S 748 mmHg 84%

    27 Juli, Donnerstag

    Zeit Temperatur Niederschläge Wind Luftdruck Luftfeuchtigkeit
    00:00 +29°C° 0,3 mm 1 m/S 748 mmHg 85%
    01:00 +29°C° 0,2 mm 1 m/S 748 mmHg 86%
    02:00 +29°C° 0,2 mm 1 m/S 748 mmHg 87%
    03:00 +29°C° 0,2 mm 1 m/S 748 mmHg 87%
    04:00 +29°C° 0 mm 1 m/S 748 mmHg 88%
    05:00 +29°C° 0 mm 1 m/S 748 mmHg 88%
    06:00 +28°C° 0 mm 1 m/S 748 mmHg 88%
    07:00 +30°C° 0 mm 2 m/S 748 mmHg 82%
    08:00 +31°C° 0 mm 2 m/S 749 mmHg 75%
    09:00 +34°C° 0 mm 2 m/S 749 mmHg 68%
    10:00 +35°C° 0,9 mm 2 m/S 749 mmHg 64%
    11:00 +36°C° 0,9 mm 2 m/S 748 mmHg 60%
    12:00 +37°C° 0,9 mm 2 m/S 748 mmHg 56%
    13:00 +37°C° 0,5 mm 2 m/S 748 mmHg 54%
    14:00 +38°C° 0,5 mm 2 m/S 747 mmHg 53%
    15:00 +38°C° 0,5 mm 2 m/S 746 mmHg 52%
    16:00 +38°C° 0 mm 2 m/S 746 mmHg 54%
    17:00 +37°C° 0 mm 2 m/S 746 mmHg 57%
    18:00 +37°C° 0 mm 2 m/S 746 mmHg 59%
    19:00 +36°C° 0,2 mm 2 m/S 746 mmHg 62%
    20:00 +35°C° 0,2 mm 2 m/S 747 mmHg 64%
    21:00 +35°C° 0,2 mm 2 m/S 748 mmHg 67%
    22:00 +34°C° 0,6 mm 2 m/S 748 mmHg 69%
    23:00 +34°C° 0,6 mm 2 m/S 748 mmHg 71%

    28 Juli, Freitag

    Zeit Temperatur Niederschläge Wind Luftdruck Luftfeuchtigkeit
    00:00 +32°C° 0,6 mm 2 m/S 748 mmHg 73%
    01:00 +32°C° 1,2 mm 2 m/S 747 mmHg 74%
    02:00 +32°C° 1,2 mm 2 m/S 747 mmHg 76%
    03:00 +31°C° 1,2 mm 2 m/S 747 mmHg 78%
    04:00 +31°C° 2,6 mm 2 m/S 747 mmHg 79%
    05:00 +31°C° 2,6 mm 2 m/S 747 mmHg 80%
    06:00 +31°C° 2,6 mm 2 m/S 748 mmHg 81%
    07:00 +32°C° 1,4 mm 2 m/S 748 mmHg 77%
    08:00 +32°C° 1,4 mm 2 m/S 749 mmHg 73%
    09:00 +34°C° 1,4 mm 2 m/S 749 mmHg 69%
    10:00 +35°C° 0,9 mm 2 m/S 749 mmHg 66%
    11:00 +36°C° 0,9 mm 2 m/S 748 mmHg 63%
    12:00 +36°C° 0,9 mm 2 m/S 748 mmHg 60%
    13:00 +37°C° 0,2 mm 2 m/S 748 mmHg 59%
    14:00 +37°C° 0,2 mm 2 m/S 747 mmHg 57%
    15:00 +37°C° 0,2 mm 2 m/S 746 mmHg 56%
    16:00 +37°C° 0,2 mm 2 m/S 746 mmHg 59%
    17:00 +36°C° 0,2 mm 2 m/S 746 mmHg 62%
    18:00 +36°C° 0,2 mm 2 m/S 746 mmHg 65%
    19:00 +35°C° 0,5 mm 3 m/S 747 mmHg 69%
    20:00 +34°C° 0,5 mm 3 m/S 748 mmHg 73%
    21:00 +33°C° 0,5 mm 4 m/S 748 mmHg 77%
    22:00 +33°C° 1,5 mm 3 m/S 748 mmHg 79%
    23:00 +31°C° 1,5 mm 3 m/S 748 mmHg 80%
    Mehr zeigen